Location: Del Amo
(33.8464°N, 118.2104°W)
Time: 03:21:35
(UTC+00:00)

SR - Pass Details

Date: 19 September 2024
Orbit: 578 x 855 km, 66.7° (Epoch: 02 October)

Event Time Altitude Azimuth Distance (km) Brightness Sun altitude
Rises 19:45:34 0° 214° (SW) 2,833 ? 57.2°
Reaches altitude 10° 19:47:51 10° 219° (SW) 1,911 ? 57.2°
Maximum altitude 19:52:02 57° 298° (WNW) 687 ? 57.2°
Drops below altitude 10° 19:56:11 10° 17° (NNE) 1,894 ? 57.1°
Sets 19:58:28 0° 22° (NNE) 2,806 ? 57.1°
